Starlink 32905

operational
NORAD ID: 62923 Int'l Des: 2025-027 Owner: SPXS Country: US Constellation: starlink
LEOCIRCULAR

Starlink 32905について

説明を読み込み中...

リアルタイム位置

3D地球を読み込み中...

次回通過

高度履歴

Altitude vs Time

uPlot chart will show altitude changes over time

軌道要素

1 62923U 25027S 25349.69250190 .00015687 00000-0 57828-3 0 9993
2 62923 42.9987 243.4501 0000805 265.6846 94.3914 15.27584350 48699
Epoch: Dec 15, 2025 • Age: 16 hours

現在のステータス

高度 482.6 km
速度 7.63 km/s
衛星直下点 20.08°N, 50.78°E
打ち上げ日 Feb 8, 2025
運用期間 0.8 years
タイプ internet

技術仕様

分類 Payload
質量 730.00 kg
乾燥質量 700.00 kg
総質量 730.00 kg
長さ 0.30 m
直径 4.10 m
スパン 29.00 m
形状 Box + pan
製造者 SPXS
バスタイプ Starlink V2M
フェーズステータス In Orbit
所有者/国 SPXS/US

大規模コンステレーション

Loading constellations...